Weather History for Toledo, OH

Change the Weather History Date:

Wednesday, September 4, 2013

  Actual Average Record
Temperature  
Mean Temperature 67 °F 68 °F  
Max Temperature 83 °F 80 °F 95 °F (1960)
Min Temperature 51 °F 57 °F 40 °F (1974)
Degree Days  
Heating Degree Days 0 1  
Month to date heating degree days 0 4  
Since 1 July heating degree days 29 18  
Cooling Degree Days 2 5  
Month to date cooling degree days 18 20  
Year to date cooling degree days 700 722  
Growing Degree Days 16 (Base 50)    
Moisture  
Dew Point 54 °F    
Average Humidity 67    
Maximum Humidity 100    
Minimum Humidity 34    
Precipitation  
Precipitation 0.00 in 0.09 in 1.78 in (1960)
Month to date precipitation 0.10 0.39  
Year to date precipitation 26.89 23.71  
Snow  
Snow 0.00 in 0.00 in - ()
Month to date snowfall 0.0 0.0  
Since 1 July snowfall 0.0 0.0  
Since 1 September snowfall 0.0 0.0  
Snow Depth 0.00 in    
Sea Level Pressure  
Sea Level Pressure 30.07 in    
Wind  
Wind Speed 8 mph (WSW)    
Max Wind Speed 18 mph    
Max Gust Speed 21 mph    
Visibility 10 miles    
Events      
T = Trace of Precipitation, MM = Missing Value Source: NWS Daily Summary

Daily Weather History Graph

Daily Weather History Graph

Search for Another Location

Airport:

Trip Planner

Search our weather history database for the weather conditions in past years. The results will help you decide how hot, cold, wet, or windy it might be!

Date:

Astronomy

Sep. 04, 2013 Rise Set
Actual Time 7:04 AM EDT 8:02 PM EDT
Civil Twilight 6:36 AM EDT 8:31 PM EDT
Nautical Twilight 6:02 AM EDT 9:04 PM EDT
Astronomical Twilight 5:27 AM EDT 9:39 PM EDT
Moon 6:15 AM EDT (9/4) 7:21 PM EDT (9/4)
Length of Visible Light 13h 54m
Length of Day
12h 58m
Waning Crescent, 1% of the Moon is Illuminated
Sep 4
Waning Crescent
Sep 5
New
Sep 12
First Quarter
Sep 19
Full
Sep 26
Last Quarter

Hourly Weather History & Observations

Time (EDT) Temp. Heat Index Dew Point Humidity Pressure Visibility Wind Dir Wind Speed Gust Speed Precip Events Conditions
12:52 AM 57.9 °F - 54.0 °F 87% 30.05 in 10.0 mi WSW 3.5 mph - N/A   Clear
1:52 AM 53.1 °F - 52.0 °F 96% 30.05 in 10.0 mi South 3.5 mph - N/A   Clear
2:52 AM 53.1 °F - 52.0 °F 96% 30.06 in 8.0 mi Calm Calm - N/A   Clear
3:52 AM 52.0 °F - 51.1 °F 97% 30.06 in 10.0 mi Calm Calm - N/A   Clear
4:52 AM 54.0 °F - 52.0 °F 93% 30.07 in 10.0 mi West 3.5 mph - N/A   Clear
5:52 AM 54.0 °F - 52.0 °F 93% 30.07 in 10.0 mi WSW 4.6 mph - N/A   Clear
6:52 AM 53.1 °F - 52.0 °F 96% 30.09 in 10.0 mi WSW 4.6 mph - N/A   Clear
7:52 AM 55.0 °F - 53.1 °F 93% 30.11 in 10.0 mi WSW 5.8 mph - N/A   Clear
8:52 AM 60.1 °F - 55.9 °F 86% 30.12 in 10.0 mi WSW 6.9 mph - N/A   Clear
9:52 AM 64.9 °F - 55.9 °F 73% 30.11 in 10.0 mi WSW 8.1 mph - N/A   Clear
10:52 AM 70.0 °F - 57.9 °F 65% 30.10 in 10.0 mi WSW 10.4 mph - N/A   Clear
11:52 AM 73.9 °F - 55.9 °F 53% 30.10 in 10.0 mi WSW 10.4 mph 18.4 mph N/A   Clear
12:52 PM 75.9 °F - 55.0 °F 48% 30.09 in 10.0 mi WSW 13.8 mph - N/A   Clear
1:52 PM 79.0 °F - 54.0 °F 42% 30.09 in 10.0 mi WSW 12.7 mph - N/A   Clear
2:52 PM 81.0 °F 80.4 °F 53.1 °F 38% 30.07 in 10.0 mi West 9.2 mph - N/A   Clear
3:52 PM 82.0 °F - 52.0 °F 35% 30.05 in 10.0 mi WSW 15.0 mph - N/A   Clear
4:52 PM 82.0 °F - 52.0 °F 35% 30.04 in 10.0 mi WSW 13.8 mph - N/A   Clear
5:52 PM 82.0 °F - 52.0 °F 35% 30.03 in 10.0 mi West 12.7 mph - N/A   Clear
6:52 PM 80.1 °F 80.1 °F 55.0 °F 42% 30.04 in 10.0 mi WNW 6.9 mph - N/A   Clear
7:52 PM 75.0 °F - 57.0 °F 53% 30.04 in 10.0 mi West 5.8 mph - N/A   Clear
8:52 PM 73.0 °F - 57.9 °F 59% 30.06 in 10.0 mi West 6.9 mph - N/A   Clear
9:52 PM 70.0 °F - 57.0 °F 63% 30.07 in 10.0 mi WNW 8.1 mph - N/A   Clear
10:52 PM 69.1 °F - 57.0 °F 65% 30.08 in 10.0 mi West 8.1 mph - N/A   Clear
11:52 PM 68.0 °F - 55.9 °F 65% 30.09 in 10.0 mi West 9.2 mph - N/A   Partly Cloudy